EAN961 DNYO-DNKA

Flight info

Callsign EAN961
Flight time N/A
Altitude 20000
Route YOL DCT SEPIX DCT EDBOB DCT IPESO
Aircraft PC12/L-SDFGRWY/S

Departure

Time 2026-04-23 00:01
Airport Yola Airport (DNYO)

Arrival

Time N/A
Airport Kaduna International Airport (DNKA)
Time Latitude Longitude Altitude Speed Heading
2026-04-23 00:00 9.23489 12.40979 2817 ft 123 kts 288°
2026-04-23 00:01 9.23722 12.40213 3148 ft 125 kts 284°
2026-04-23 00:01 9.23977 12.39372 3528 ft 127 kts 285°
2026-04-23 00:01 9.24229 12.38501 4002 ft 128 kts 285°
2026-04-23 00:01 9.24472 12.37634 4459 ft 130 kts 286°
2026-04-23 00:02 9.24719 12.36753 4890 ft 131 kts 287°
2026-04-23 00:02 9.24971 12.35860 5328 ft 133 kts 287°
2026-04-23 00:02 9.25222 12.34956 5798 ft 135 kts 288°
2026-04-23 00:02 9.25479 12.34039 6279 ft 136 kts 288°
2026-04-23 00:03 9.25739 12.33110 6752 ft 138 kts 288°
2026-04-23 00:03 9.25998 12.32175 7219 ft 139 kts 288°
2026-04-23 00:03 9.26263 12.31223 7687 ft 141 kts 288°
2026-04-23 00:03 9.26529 12.30273 8162 ft 143 kts 289°
2026-04-23 00:04 9.26800 12.29304 8678 ft 144 kts 289°
2026-04-23 00:04 9.27075 12.28324 9150 ft 146 kts 289°
2026-04-23 00:04 9.27350 12.27331 9648 ft 147 kts 289°
2026-04-23 00:04 9.27630 12.26324 10094 ft 149 kts 289°
2026-04-23 00:05 9.27913 12.25312 10541 ft 150 kts 289°
2026-04-23 00:05 9.28198 12.24291 11003 ft 151 kts 289°
2026-04-23 00:05 9.28486 12.23260 11461 ft 153 kts 289°
2026-04-23 00:05 9.28775 12.22219 11916 ft 154 kts 289°
2026-04-23 00:06 9.29069 12.21168 12384 ft 156 kts 289°
2026-04-23 00:06 9.29365 12.20106 12850 ft 158 kts 289°
2026-04-23 00:06 9.29665 12.19030 13316 ft 159 kts 289°
2026-04-23 00:06 9.29968 12.17943 13762 ft 161 kts 289°
2026-04-23 00:07 9.30268 12.16866 14166 ft 162 kts 289°
2026-04-23 00:07 9.30574 12.15768 14571 ft 163 kts 288°
2026-04-23 00:07 9.30883 12.14660 14972 ft 163 kts 288°
2026-04-23 00:07 9.31191 12.13549 15368 ft 164 kts 287°
2026-04-23 00:08 9.31505 12.12423 15704 ft 170 kts 287°
2026-04-23 00:08 9.31850 12.11202 15786 ft 193 kts 287°
2026-04-23 00:08 9.32245 12.09808 15793 ft 218 kts 287°
2026-04-23 00:08 9.32677 12.08261 15791 ft 238 kts 287°
2026-04-23 00:09 9.33137 12.06600 15785 ft 251 kts 287°
2026-04-23 00:09 9.33616 12.04871 15782 ft 259 kts 287°
2026-04-23 00:09 9.34105 12.03112 15781 ft 265 kts 287°
2026-04-23 00:09 9.34606 12.01309 15783 ft 268 kts 287°
2026-04-23 00:10 9.35113 11.99485 15773 ft 270 kts 287°
2026-04-23 00:10 9.35618 11.97668 15779 ft 270 kts 287°
2026-04-23 00:10 9.36129 11.95833 15775 ft 271 kts 287°
2026-04-23 00:10 9.36638 11.93995 15781 ft 271 kts 287°
2026-04-23 00:11 9.37149 11.92154 15776 ft 271 kts 287°
2026-04-23 00:11 9.37662 11.90309 15776 ft 271 kts 287°
2026-04-23 00:11 9.38173 11.88470 15781 ft 272 kts 287°
2026-04-23 00:11 9.38685 11.86626 15781 ft 272 kts 287°
2026-04-23 00:12 9.39190 11.84805 15780 ft 272 kts 287°
2026-04-23 00:12 9.39702 11.82958 15782 ft 272 kts 287°
2026-04-23 00:12 9.40215 11.81111 15782 ft 273 kts 287°
2026-04-23 00:12 9.40730 11.79257 15779 ft 273 kts 287°
2026-04-23 00:13 9.41244 11.77404 15784 ft 273 kts 287°
2026-04-23 00:13 9.41754 11.75553 15782 ft 273 kts 287°
2026-04-23 00:13 9.42268 11.73706 15784 ft 273 kts 287°
2026-04-23 00:13 9.42783 11.71850 15785 ft 274 kts 287°
2026-04-23 00:14 9.43296 11.69992 15783 ft 274 kts 287°
2026-04-23 00:14 9.43805 11.68156 15783 ft 273 kts 287°
2026-04-23 00:14 9.44318 11.66305 15787 ft 273 kts 287°
2026-04-23 00:14 9.44830 11.64450 15788 ft 273 kts 287°
2026-04-23 00:15 9.45346 11.62588 15786 ft 273 kts 287°
2026-04-23 00:15 9.45858 11.60736 15784 ft 273 kts 287°
2026-04-23 00:15 9.46373 11.58879 15786 ft 273 kts 287°
2026-04-23 00:15 9.46886 11.57023 15789 ft 274 kts 287°
2026-04-23 00:16 9.47399 11.55167 15789 ft 273 kts 287°
2026-04-23 00:16 9.47906 11.53334 15791 ft 273 kts 287°
2026-04-23 00:16 9.48419 11.51482 15790 ft 273 kts 287°
2026-04-23 00:16 9.48931 11.49625 15790 ft 273 kts 287°
2026-04-23 00:17 9.49443 11.47773 15793 ft 273 kts 287°
2026-04-23 00:17 9.49956 11.45913 15791 ft 274 kts 287°
2026-04-23 00:17 9.50469 11.44054 15780 ft 274 kts 287°
2026-04-23 00:17 9.50982 11.42199 15795 ft 273 kts 287°
2026-04-23 00:18 9.51497 11.40339 15794 ft 274 kts 287°
2026-04-23 00:18 9.52010 11.38479 15797 ft 274 kts 287°
2026-04-23 00:18 9.52524 11.36614 15792 ft 274 kts 287°
2026-04-23 00:18 9.53037 11.34753 15787 ft 275 kts 287°
2026-04-23 00:19 9.53545 11.32914 15788 ft 274 kts 287°
2026-04-23 00:19 9.54057 11.31055 15782 ft 273 kts 287°
2026-04-23 00:19 9.54569 11.29200 15793 ft 273 kts 287°
2026-04-23 00:19 9.55079 11.27348 15786 ft 273 kts 287°
2026-04-23 00:20 9.55590 11.25491 15790 ft 273 kts 287°
2026-04-23 00:20 9.56103 11.23634 15789 ft 273 kts 287°
2026-04-23 00:20 9.56613 11.21781 15789 ft 273 kts 287°
2026-04-23 00:20 9.57122 11.19930 15794 ft 273 kts 287°
2026-04-23 00:21 9.57634 11.18075 15788 ft 273 kts 287°
2026-04-23 00:21 9.58144 11.16218 15799 ft 274 kts 287°
2026-04-23 00:21 9.58651 11.14381 15792 ft 274 kts 287°
2026-04-23 00:21 9.59163 11.12520 15796 ft 274 kts 287°
2026-04-23 00:22 9.59671 11.10667 15792 ft 273 kts 287°
2026-04-23 00:22 9.60181 11.08815 15791 ft 272 kts 287°
2026-04-23 00:22 9.60690 11.06964 15796 ft 273 kts 287°
2026-04-23 00:22 9.61198 11.05116 15793 ft 272 kts 287°
2026-04-23 00:23 9.61707 11.03265 15792 ft 272 kts 287°
2026-04-23 00:23 9.62214 11.01420 15795 ft 272 kts 287°
2026-04-23 00:23 9.62720 10.99576 15793 ft 272 kts 287°
2026-04-23 00:23 9.63228 10.97728 15785 ft 272 kts 287°
2026-04-23 00:24 9.63734 10.95884 15792 ft 271 kts 287°
2026-04-23 00:24 9.64241 10.94038 15788 ft 272 kts 287°
2026-04-23 00:24 9.64747 10.92193 15794 ft 272 kts 287°
2026-04-23 00:24 9.65248 10.90370 15785 ft 272 kts 287°
2026-04-23 00:25 9.65755 10.88519 15792 ft 272 kts 287°
2026-04-23 00:25 9.66262 10.86672 15792 ft 272 kts 287°
2026-04-23 00:25 9.66771 10.84818 15787 ft 272 kts 287°
2026-04-23 00:25 9.67277 10.82973 15789 ft 271 kts 287°
2026-04-23 00:26 9.67783 10.81125 15794 ft 272 kts 287°
2026-04-23 00:26 9.68288 10.79282 15786 ft 271 kts 287°
2026-04-23 00:26 9.68793 10.77438 15796 ft 271 kts 287°
2026-04-23 00:26 9.69290 10.75621 15791 ft 271 kts 287°
2026-04-23 00:27 9.69797 10.73772 15787 ft 271 kts 287°
2026-04-23 00:27 9.70301 10.71934 15790 ft 270 kts 287°
2026-04-23 00:27 9.70798 10.70115 15790 ft 270 kts 287°
2026-04-23 00:27 9.71301 10.68279 15787 ft 270 kts 287°
2026-04-23 00:28 9.71802 10.66446 15789 ft 270 kts 287°
2026-04-23 00:28 9.72305 10.64609 15791 ft 270 kts 287°
2026-04-23 00:28 9.72807 10.62773 15781 ft 270 kts 287°
2026-04-23 00:28 9.73311 10.60930 15783 ft 270 kts 287°
2026-04-23 00:29 9.73812 10.59098 15783 ft 270 kts 287°
2026-04-23 00:29 9.74314 10.57263 15784 ft 270 kts 287°
2026-04-23 00:29 9.74814 10.55430 15790 ft 270 kts 287°
2026-04-23 00:29 9.75316 10.53592 15793 ft 270 kts 287°
2026-04-23 00:30 9.75811 10.51782 15781 ft 270 kts 287°
2026-04-23 00:30 9.76313 10.49942 15793 ft 270 kts 287°
2026-04-23 00:30 9.76816 10.48102 15792 ft 270 kts 287°
2026-04-23 00:30 9.77318 10.46260 15791 ft 270 kts 287°
2026-04-23 00:31 9.77812 10.44451 15792 ft 269 kts 287°
2026-04-23 00:31 9.78312 10.42618 15793 ft 269 kts 287°
2026-04-23 00:31 9.78811 10.40786 15793 ft 269 kts 287°
2026-04-23 00:31 9.79312 10.38952 15787 ft 270 kts 287°
2026-04-23 00:32 9.79810 10.37123 15794 ft 269 kts 287°
2026-04-23 00:32 9.80310 10.35290 15794 ft 269 kts 287°
2026-04-23 00:32 9.80809 10.33459 15794 ft 269 kts 287°
2026-04-23 00:32 9.81309 10.31624 15798 ft 270 kts 287°
2026-04-23 00:33 9.81809 10.29787 15796 ft 270 kts 287°
2026-04-23 00:33 9.82308 10.27956 15792 ft 269 kts 287°
2026-04-23 00:33 9.82806 10.26126 15800 ft 269 kts 287°
2026-04-23 00:33 9.83305 10.24296 15801 ft 269 kts 287°
2026-04-23 00:34 9.83803 10.22462 15793 ft 269 kts 287°
2026-04-23 00:34 9.84295 10.20655 15796 ft 269 kts 287°
2026-04-23 00:34 9.84792 10.18824 15804 ft 269 kts 287°
2026-04-23 00:34 9.85290 10.16995 15803 ft 269 kts 287°
2026-04-23 00:35 9.85788 10.15166 15803 ft 269 kts 287°
2026-04-23 00:35 9.86287 10.13330 15806 ft 269 kts 287°
2026-04-23 00:35 9.86784 10.11499 15798 ft 269 kts 287°
2026-04-23 00:35 9.87282 10.09667 15806 ft 270 kts 287°
2026-04-23 00:36 9.87781 10.07831 15803 ft 270 kts 287°
2026-04-23 00:36 9.88279 10.06000 15807 ft 270 kts 287°
2026-04-23 00:36 9.88777 10.04160 15813 ft 270 kts 287°
2026-04-23 00:36 9.89277 10.02321 15806 ft 270 kts 287°
2026-04-23 00:37 9.89768 10.00509 15812 ft 270 kts 287°
2026-04-23 00:37 9.90266 9.98673 15811 ft 270 kts 287°
2026-04-23 00:37 9.90764 9.96839 15820 ft 270 kts 287°
2026-04-23 00:37 9.91260 9.95007 15814 ft 270 kts 287°
2026-04-23 00:38 9.91759 9.93173 15820 ft 270 kts 287°
2026-04-23 00:38 9.92089 9.91956 15820 ft 270 kts 287°
2026-04-23 00:38 9.92585 9.90123 15811 ft 270 kts 287°
2026-04-23 00:38 9.93082 9.88288 15820 ft 270 kts 287°
2026-04-23 00:39 9.93580 9.86449 15824 ft 270 kts 287°
2026-04-23 00:39 9.94078 9.84614 15827 ft 270 kts 287°
2026-04-23 00:39 9.94574 9.82780 15821 ft 270 kts 287°
2026-04-23 00:39 9.95070 9.80946 15824 ft 270 kts 287°
2026-04-23 00:40 9.95522 9.79278 15820 ft 270 kts 287°
2026-04-23 00:40 9.96017 9.77450 15825 ft 270 kts 287°
2026-04-23 00:40 9.96509 9.75627 15830 ft 270 kts 287°
2026-04-23 00:40 9.97008 9.73784 15831 ft 270 kts 287°
2026-04-23 00:41 9.97507 9.71941 15834 ft 271 kts 287°
2026-04-23 00:41 9.98005 9.70099 15834 ft 271 kts 287°
2026-04-23 00:41 9.98504 9.68253 15825 ft 271 kts 287°
2026-04-23 00:41 9.99002 9.66409 15836 ft 271 kts 287°
2026-04-23 00:42 9.99499 9.64566 15837 ft 271 kts 287°
2026-04-23 00:42 9.99997 9.62722 15837 ft 271 kts 287°
2026-04-23 00:42 10.00497 9.60871 15836 ft 271 kts 287°
2026-04-23 00:42 10.00990 9.59049 15838 ft 272 kts 287°
2026-04-23 00:43 10.01488 9.57201 15841 ft 271 kts 287°
2026-04-23 00:43 10.01985 9.55361 15844 ft 271 kts 287°
2026-04-23 00:43 10.02483 9.53515 15844 ft 271 kts 287°
2026-04-23 00:43 10.02982 9.51664 15839 ft 272 kts 287°
2026-04-23 00:44 10.03483 9.49806 15849 ft 272 kts 287°
2026-04-23 00:44 10.03981 9.47958 15850 ft 272 kts 287°
2026-04-23 00:44 10.04482 9.46101 15852 ft 272 kts 287°
2026-04-23 00:44 10.04981 9.44247 15854 ft 272 kts 287°
2026-04-23 00:45 10.05480 9.42398 15851 ft 272 kts 287°
2026-04-23 00:45 10.05979 9.40548 15846 ft 272 kts 287°
2026-04-23 00:45 10.06474 9.38704 15854 ft 271 kts 287°
2026-04-23 00:45 10.06971 9.36855 15848 ft 271 kts 287°
2026-04-23 00:46 10.07468 9.35012 15857 ft 271 kts 287°
2026-04-23 00:46 10.07965 9.33168 15854 ft 271 kts 287°
2026-04-23 00:46 10.08461 9.31323 15858 ft 271 kts 287°
2026-04-23 00:46 10.08950 9.29501 15857 ft 271 kts 287°
2026-04-23 00:47 10.09446 9.27656 15853 ft 271 kts 287°
2026-04-23 00:47 10.09942 9.25812 15861 ft 271 kts 287°
2026-04-23 00:47 10.10438 9.23967 15859 ft 271 kts 287°
2026-04-23 00:47 10.10934 9.22122 15865 ft 271 kts 287°
2026-04-23 00:48 10.11432 9.20270 15855 ft 271 kts 287°
2026-04-23 00:48 10.11926 9.18429 15856 ft 271 kts 287°
2026-04-23 00:48 10.12422 9.16582 15864 ft 271 kts 287°
2026-04-23 00:48 10.12582 9.15984 15856 ft 271 kts 287°